Weather in Sarykemer

Kazakhstan     43°00′27″N   71°30′54″E
temp.,
°C
wind,
m/s
gust,
m/s
humid.,
%
clouds,
%
prec.,
mm/h
press.,
hPa
HPBL,
m
13 april, tue
tue1300:00+11wsw2259100 0.1 102019
03:00+9wsw12654 0.0 102112
06:00+8ssw117597 0.0 102210
09:00+13sw2254100 0.0 1022256
12:00+16nw1147100 0.0 1022805
15:00+18ene2244100 0.0 1021907
18:00+17ene1151100 0.0 102134
21:00+15ese3353100 0.0 102127
14 april, wed
wed1400:00+13sw116499 0.0 102012
03:00+11nne2269100 0.0 101921
06:00+10ene3560100 0.0 1020111
09:00+13e44507 0.0 1020419
12:00+17ne55390 0.0 1019882
15:00+19ne66350 0.0 10171232
18:00+18ne66330 0.0 10161059
21:00+13ene36500 0.0 101683
15 april, thu
thu1500:00+12ese22620 0.0 101526
03:00+9e12681 0.0 101416
06:00+9s22650 0.0 101513
09:00+13w22520 0.0 1015254
12:00+18wnw33430 0.0 1015810
15:00+22nnw33332 0.0 10131209
18:00+21nnw223214 0.0 10131243
21:00+14w33605 0.1 101537
16 april, fri
fri1600:00+13ssw33740 0.1 101535
03:00+12s33741 0.0 101423
06:00+12s33691 0.0 101426
09:00+17s225290 0.0 1015235
12:00+22w33275 0.0 10131553
15:00+24wnw552399 0.0 10122253
18:00+22wnw66326 0.1 10131405
21:00+15s11473 0.1 101511
17 april, sat
sat1700:00+14s335265 0.1 101433
03:00+13ssw3352100 0.0 101425
06:00+12s22535 0.0 101414
09:00+17s01395 0.0 1014238
12:00+21n322625 0.0 10131269
15:00+23nnw4324100 0.0 10122051
18:00+22n3225100 0.0 10111964
21:00+16nne2236100 0.0 101315